Theta_e
328 328 329 329 330 331 332 332 333 333 333 333 333 333 333 333 334 334 334 334 334 334 334 333 333 333 333 333 333 333 333 333 332 331 331 331 330 330 331 331 330 329 329 329 329 330 332 333 332 330 330 330 329 329 330 331 331 331 331 330 330 330 330
326 327 327 327 327 328 328 329 330 331 331 331 331 332 332 333 333 333 334 334 335 334 333 333 333 333 333 333 332 332 332 332 331 330 330 330 330 329 329 330 330 329 329 328 328 328 329 331 332 331 330 330 329 328 328 328 329 330 330 330 330 330 330
324 325 325 325 325 325 325 326 327 328 329 329 330 330 331 332 332 333 333 334 334 334 334 334 333 333 333 333 332 332 331 330 330 330 330 329 329 329 329 329 329 328 328 328 328 328 327 328 330 331 330 331 331 330 329 329 329 330 330 329 330 330 329
322 323 323 322 322 322 323 323 325 325 326 327 328 329 329 330 330 331 332 332 333 334 333 333 333 333 333 333 333 332 331 330 330 330 330 330 329 329 329 329 329 328 328 328 328 329 328 328 328 329 330 331 331 331 330 331 331 330 330 329 329 329 329
320 320 320 320 320 320 321 321 322 323 324 325 326 326 327 328 329 329 330 330 331 332 332 332 332 332 332 333 332 332 331 330 330 330 330 330 329 329 329 329 329 329 329 329 328 328 328 328 328 328 329 330 331 331 330 331 331 331 331 330 330 329 329
319 318 318 318 318 318 319 319 319 320 321 322 323 324 325 326 327 328 329 329 329 329 329 330 330 330 331 331 332 331 331 330 330 330 330 330 329 329 329 329 329 329 329 329 329 328 328 328 328 328 329 329 330 330 330 331 331 331 331 330 330 330 329
317 316 317 317 317 317 316 316 317 318 319 320 321 322 323 323 325 326 326 326 326 326 326 326 326 327 328 329 330 330 330 329 329 330 330 330 330 329 329 329 330 329 329 329 329 328 328 328 328 328 328 329 329 329 330 330 330 330 330 330 330 330 329
315 315 315 315 316 315 314 314 316 316 317 318 319 320 320 321 322 323 323 323 323 324 325 325 325 325 325 326 328 328 329 329 329 329 329 329 329 329 329 328 329 330 329 329 329 328 328 328 328 328 328 329 330 329 329 330 330 330 330 330 330 330 329
314 314 314 314 314 314 313 314 315 315 316 316 318 319 318 319 320 320 321 321 322 323 325 325 325 325 325 325 326 326 327 327 328 328 328 329 328 328 328 328 328 329 329 329 329 328 328 328 329 328 327 328 330 330 330 330 330 330 330 330 330 330 330
313 313 313 313 312 312 313 315 315 315 315 316 316 316 316 318 318 316 317 318 319 321 323 323 324 325 325 325 325 326 326 326 326 327 328 329 328 328 328 328 328 328 329 329 329 328 329 329 329 328 327 327 327 329 331 331 330 329 329 330 330 330 330
311 312 312 311 310 310 311 313 313 313 314 314 314 314 315 316 315 314 315 316 317 318 319 320 322 323 324 325 325 326 326 327 327 327 328 328 328 328 328 328 328 328 328 329 329 328 329 329 329 328 328 327 327 327 329 330 330 329 328 330 330 330 330
311 311 310 309 308 308 308 308 310 311 311 312 312 312 312 313 313 312 312 313 314 315 316 317 318 320 321 322 324 324 326 327 328 328 328 329 329 328 328 328 328 328 328 328 328 328 328 329 329 329 328 327 326 327 327 328 330 329 328 329 330 330 330
309 310 309 309 308 307 306 306 307 307 308 309 309 309 310 310 311 311 309 309 312 313 313 314 314 316 318 319 321 322 324 325 326 327 328 328 328 328 328 328 328 328 329 328 328 328 328 328 329 329 329 327 326 327 327 326 327 328 327 328 330 330 330
308 308 308 308 307 307 306 305 305 305 306 306 306 307 307 308 309 309 307 307 309 309 309 310 311 312 314 316 318 319 321 323 324 326 327 327 327 328 328 327 327 328 328 328 328 328 328 329 329 329 330 329 327 327 327 325 325 326 326 327 328 330 330
307 307 307 307 307 306 306 305 305 304 304 304 304 304 304 305 306 307 305 304 305 306 306 307 308 309 310 312 315 317 319 320 322 323 325 326 327 327 328 328 327 327 327 327 328 329 329 330 330 329 330 330 329 328 327 327 326 326 326 326 328 329 329
306 306 306 307 307 306 306 305 305 304 304 303 303 303 303 303 304 304 302 301 302 302 302 302 304 306 308 309 312 315 316 318 319 321 323 324 326 326 327 327 327 327 326 326 327 327 328 328 329 329 329 330 330 328 328 327 326 326 326 326 327 328 329
306 306 306 306 306 306 306 305 305 304 303 303 302 302 302 302 302 302 301 300 300 299 299 299 300 303 305 307 309 312 314 316 318 319 320 322 324 325 326 326 326 326 326 327 327 327 327 327 327 328 328 329 328 328 328 327 327 327 326 326 327 328 329
306 306 305 305 305 306 306 305 305 304 303 303 302 301 301 301 301 301 301 299 298 298 297 297 298 300 302 304 307 309 311 313 316 318 319 321 323 324 326 326 326 326 326 326 326 326 327 327 326 327 327 327 327 327 328 328 328 328 326 326 327 327 328
304 304 304 304 304 304 304 304 304 304 303 302 302 301 300 300 300 300 300 299 297 297 297 297 297 298 300 303 305 307 309 312 314 316 318 321 322 324 325 326 326 326 326 326 326 326 327 327 327 327 326 326 327 327 328 328 328 328 326 326 326 326 327
303 303 303 303 303 302 302 302 303 304 304 303 302 300 300 299 299 299 299 298 297 296 297 297 297 297 299 301 303 305 307 310 312 315 317 319 321 322 324 325 326 326 326 327 327 326 327 327 327 327 326 326 326 327 327 327 327 327 326 325 325 325 326
303 303 303 303 302 301 301 301 301 302 302 302 301 300 300 299 299 298 298 297 297 296 296 297 297 297 299 300 302 304 306 308 310 313 316 318 319 320 322 324 326 326 326 326 326 327 327 327 327 326 326 326 326 326 327 327 327 326 325 325 325 325 325
303 303 303 303 302 301 300 300 300 300 301 301 300 300 299 298 298 298 298 297 297 296 296 296 297 297 297 298 300 303 305 307 309 312 314 315 316 317 320 322 324 326 326 326 326 326 327 327 327 327 326 327 326 326 326 327 326 326 325 325 325 325 324
301 301 301 303 302 301 300 300 300 299 300 300 300 299 298 298 298 297 297 297 296 296 296 296 297 297 297 298 299 301 304 306 307 309 311 310 311 312 315 318 320 322 323 323 324 325 326 327 327 327 327 327 327 326 325 326 326 326 326 325 324 324 324
299 299 300 301 302 301 300 299 299 299 299 299 299 299 298 298 297 297 297 296 296 296 296 296 297 297 298 298 298 299 301 302 303 305 305 305 305 306 309 312 315 317 318 320 321 323 325 326 327 327 327 327 327 326 326 325 325 325 326 325 324 324 324
298 298 299 299 300 300 300 299 299 299 299 299 299 299 298 298 297 297 297 296 296 296 296 296 296 297 297 298 297 297 298 299 300 300 301 301 301 302 303 306 310 312 313 316 318 320 322 324 325 326 327 327 327 327 326 326 326 325 325 325 324 324 324
297 297 298 298 298 299 300 299 298 298 298 299 299 298 298 298 297 297 297 296 296 296 296 296 296 296 297 297 297 297 297 297 298 298 299 299 299 299 300 302 305 308 310 312 315 317 319 321 322 324 326 326 326 326 326 326 326 326 326 325 324 324 324
297 297 297 297 298 298 298 298 297 297 297 299 299 299 298 298 297 297 297 296 296 296 296 296 296 296 297 297 297 296 296 297 297 297 297 298 298 298 299 299 300 303 306 308 310 312 315 318 319 321 324 325 326 326 326 326 326 325 326 326 325 325 325
297 297 296 297 297 297 296 296 296 296 297 299 299 298 297 297 297 297 296 296 296 296 296 296 296 296 296 297 297 296 296 296 296 296 296 297 297 297 297 298 298 300 303 304 305 307 310 314 317 319 322 324 325 326 326 326 325 325 326 326 326 326 325
297 297 296 296 296 296 295 295 295 297 298 298 297 296 295 295 295 295 295 295 295 295 295 296 296 296 296 296 296 296 296 296 296 296 296 296 296 296 297 297 297 298 300 302 303 305 307 311 315 318 321 323 324 324 324 324 325 325 325 325 326 326 325
297 297 296 296 296 296 295 295 295 296 297 296 295 294 294 294 293 294 293 293 294 294 295 295 296 296 296 295 295 295 295 295 295 296 295 296 296 296 296 296 296 297 299 300 301 303 305 308 313 316 319 322 323 324 323 323 323 324 325 325 325 325 326
297 297 296 297 296 296 296 295 295 295 295 295 295 295 294 293 293 293 293 292 293 294 294 294 296 296 296 296 295 295 294 294 294 295 295 295 295 295 296 296 295 295 296 298 300 302 304 306 309 312 315 318 322 323 323 323 323 323 324 324 324 324 325
298 297 296 296 296 296 296 295 295 295 295 295 295 295 294 293 293 292 292 292 292 293 293 294 295 296 296 296 295 295 294 293 293 294 295 295 295 295 295 296 296 295 295 297 299 301 302 304 306 309 311 314 319 323 323 323 323 322 323 323 322 323 324
298 297 296 296 296 296 296 295 295 295 295 294 294 294 294 293 293 292 292 292 293 293 293 294 295 296 296 296 295 295 294 293 292 293 294 294 294 294 294 295 295 295 296 297 298 300 301 302 304 306 309 311 315 320 322 323 322 321 320 320 320 321 322
298 298 297 296 296 296 295 295 295 295 294 294 294 294 293 293 293 292 292 292 293 293 293 294 295 296 296 296 296 295 294 293 292 293 293 293 293 293 293 294 294 295 295 297 297 298 300 301 302 304 306 309 313 316 319 321 320 318 317 317 317 317 317
298 298 297 296 296 296 295 295 295 295 294 294 294 293 293 293 293 292 292 292 293 294 294 294 295 296 296 296 296 295 295 294 293 293 292 292 292 292 292 293 294 294 295 296 297 297 298 299 301 303 305 309 314 316 317 318 318 315 314 314 314 314 314
298 298 297 297 296 296 295 295 295 295 295 294 294 293 293 293 292 292 292 292 293 294 294 294 295 295 296 296 296 296 295 294 294 293 292 292 292 292 292 293 294 295 295 296 296 296 297 298 299 301 303 308 312 314 315 316 315 313 312 311 311 311 311
299 298 298 297 297 296 296 295 295 295 294 294 294 293 293 293 292 292 292 292 292 293 294 294 295 295 296 296 297 296 295 294 294 293 293 293 292 292 292 292 294 295 295 296 296 296 296 296 297 299 302 304 307 309 310 311 311 311 309 308 307 307 306
Wind_Speed
12 12 12 12 12 12 12 13 13 14 15 15 16 15 15 14 14 13 13 14 16 16 17 19 20 21 22 22 21 22 23 24 23 23 25 24 21 21 23 24 28 30 27 21 15 9 3 2 7 14 21 25 27 28 29 30 32 33 31 29 28 26 26
12 12 13 13 12 12 12 12 12 13 13 15 17 18 17 17 16 16 15 14 15 14 15 16 18 19 20 21 21 21 22 23 24 24 25 26 25 24 22 20 23 27 28 27 24 17 8 5 4 5 11 18 22 27 30 29 32 33 30 29 29 28 27
14 13 13 14 14 13 13 13 13 12 12 12 14 15 16 16 15 15 16 15 15 14 14 16 17 18 19 20 22 23 24 25 25 25 26 28 29 28 26 22 20 22 20 18 20 19 12 8 6 4 9 13 12 20 27 29 31 32 30 29 28 27 27
15 15 15 16 16 15 15 15 14 13 12 12 12 12 14 14 15 15 15 15 14 15 16 17 17 18 19 19 21 22 23 24 25 25 27 29 29 29 28 26 24 23 20 16 18 21 15 9 7 4 8 15 14 15 21 27 31 30 29 29 27 26 27
17 16 16 17 16 16 16 15 15 14 14 14 13 14 15 16 16 16 16 16 15 15 16 17 17 18 18 19 20 21 22 23 25 26 27 28 30 29 28 29 28 28 28 26 24 25 22 18 12 5 7 13 12 12 17 21 25 29 28 28 27 27 27
16 17 17 17 17 16 16 15 14 15 15 16 16 17 18 18 17 17 17 17 16 16 16 17 18 19 19 19 21 22 23 24 25 27 28 28 29 30 30 29 29 30 32 32 30 28 26 23 16 8 9 12 8 10 16 17 20 25 27 28 27 27 28
16 17 16 16 17 17 17 16 15 14 15 16 16 17 18 18 17 17 17 16 16 17 17 18 19 19 20 20 22 23 24 25 25 26 28 28 29 30 29 29 30 30 31 32 32 30 26 23 19 13 9 9 9 9 11 15 18 18 20 27 29 27 27
15 15 15 15 17 18 18 18 16 15 16 16 16 17 18 19 18 17 17 18 19 19 19 19 20 20 21 21 23 25 25 25 25 26 27 27 29 30 31 31 31 31 31 31 32 31 29 26 24 22 15 8 7 6 6 10 15 16 20 24 27 28 27
15 16 16 16 17 18 19 19 18 17 17 17 18 18 19 20 20 21 21 22 23 23 22 20 20 21 22 22 23 25 25 25 25 26 28 27 28 30 31 31 31 31 31 31 31 31 30 29 27 27 23 14 7 5 4 5 7 12 20 21 22 28 29
16 17 18 18 18 18 18 18 18 18 17 18 19 19 19 20 22 24 25 25 25 24 22 21 21 21 22 22 23 24 25 25 24 26 28 27 26 28 29 29 29 29 29 29 30 28 27 29 29 27 25 22 16 7 4 6 5 8 17 21 21 24 29
17 18 19 20 21 21 21 20 19 19 18 18 19 20 20 21 22 24 26 26 25 24 23 23 21 20 20 20 21 23 24 24 24 26 27 26 26 27 27 27 27 28 27 26 27 28 26 26 28 28 26 26 23 15 8 6 7 10 16 21 22 24 27
19 19 19 20 23 25 25 24 22 20 20 19 20 20 20 21 20 21 26 27 25 25 25 25 23 22 21 19 19 20 21 23 23 25 26 25 26 26 27 26 26 26 25 25 26 26 26 26 26 27 27 27 26 24 17 8 5 11 17 21 24 26 27
21 20 20 21 23 25 26 27 25 23 22 21 20 21 20 20 18 19 25 29 27 27 27 27 27 25 24 22 20 19 19 20 21 23 23 24 24 25 26 25 24 24 22 23 25 25 24 25 26 26 26 27 27 27 23 14 5 8 17 23 26 27 28
23 22 21 21 22 25 26 27 26 26 26 25 25 24 22 20 17 18 25 30 29 29 30 30 30 29 28 26 24 22 20 19 20 21 21 22 22 22 24 24 24 24 22 21 22 24 24 23 23 24 25 25 25 26 25 19 11 9 14 20 24 27 28
23 23 23 22 22 24 26 27 27 27 28 27 28 30 27 22 18 17 26 33 32 31 32 32 32 31 30 29 26 24 24 22 21 21 20 20 20 19 19 20 22 22 22 21 21 21 22 22 23 25 25 24 24 26 27 24 18 12 11 17 23 25 26
23 23 23 23 21 22 24 26 27 27 27 26 27 29 27 25 22 19 27 37 37 34 34 33 33 33 31 29 27 25 25 24 22 21 20 20 19 18 17 18 20 20 19 20 20 19 19 21 23 24 25 25 25 26 27 27 23 17 14 17 22 24 26
22 22 22 22 21 21 22 23 25 27 28 28 28 28 25 23 22 21 26 35 37 35 35 34 35 36 32 30 28 26 25 24 23 22 20 19 19 18 18 19 20 19 17 17 17 18 19 20 21 23 25 27 27 27 26 26 27 24 18 17 21 26 28
22 22 21 22 21 22 22 22 22 25 27 29 29 30 29 25 22 20 23 29 33 35 37 37 37 38 35 31 28 26 25 24 23 22 20 18 18 17 17 19 20 19 18 17 16 17 18 20 21 23 27 27 25 25 25 26 29 27 23 19 19 23 27
24 24 23 23 22 22 23 22 22 22 25 27 29 30 30 28 24 20 20 24 29 34 38 39 39 40 37 34 30 27 25 24 22 22 21 19 18 17 16 18 20 20 18 18 18 18 19 21 22 24 29 28 24 22 24 27 27 26 25 24 21 21 25
25 25 24 24 25 25 25 25 23 22 22 25 27 29 29 28 26 22 20 23 29 34 38 41 41 41 40 36 32 28 27 25 24 23 23 21 19 17 17 17 17 19 18 17 17 18 19 21 23 25 28 28 25 23 24 26 26 25 25 23 21 22 24
24 23 23 23 25 26 27 28 26 24 23 23 25 26 28 28 27 24 23 26 30 34 38 41 43 43 42 38 32 28 27 27 27 27 26 24 22 21 19 16 14 14 16 16 16 16 18 20 23 26 27 26 25 24 24 24 23 22 23 21 21 21 21
25 24 22 22 23 25 26 28 28 27 25 24 24 25 27 28 28 27 27 29 31 35 38 40 43 43 42 39 34 29 27 27 28 29 27 26 25 23 21 18 13 12 14 15 15 16 18 21 23 25 26 27 26 24 23 22 21 20 21 20 19 19 18
26 27 25 22 21 24 26 26 27 27 26 25 24 26 27 28 29 29 29 30 32 35 38 40 42 42 41 39 35 31 28 27 27 27 26 26 26 25 23 20 16 14 15 16 16 17 19 22 24 26 26 26 26 26 23 21 21 21 19 16 17 18 17
27 27 28 25 22 22 24 26 26 26 26 25 24 25 28 29 30 30 29 31 32 33 37 39 41 42 42 40 37 33 30 28 27 27 26 27 28 27 26 24 20 17 16 15 15 15 16 20 23 26 27 27 27 27 26 23 22 22 19 17 19 20 19
28 27 28 28 26 22 22 25 27 26 26 27 25 25 27 28 29 29 29 30 31 33 37 39 40 41 42 41 39 35 32 29 29 29 29 29 28 28 29 28 26 23 20 17 15 14 14 15 19 23 26 27 27 28 27 25 25 24 23 22 21 21 22
29 28 27 27 27 25 23 23 25 26 25 25 26 27 27 28 28 29 29 30 30 32 35 39 40 40 40 41 39 37 34 29 28 30 30 29 28 28 28 30 30 29 25 20 18 17 16 15 16 19 22 24 26 28 29 28 28 28 28 28 26 24 26
29 29 27 26 26 26 25 24 24 25 24 23 24 26 27 27 28 29 29 29 29 31 33 37 39 39 39 39 38 37 34 30 29 32 31 30 30 29 27 28 30 31 29 25 23 22 20 18 17 17 19 20 22 25 28 29 30 30 30 30 30 31 34
27 28 28 27 27 26 26 25 25 25 25 23 23 25 26 27 27 28 29 29 29 30 32 34 36 38 38 38 36 36 34 31 31 33 32 32 32 30 27 27 28 31 31 29 28 26 24 23 21 18 19 19 19 21 26 29 31 32 32 31 32 34 36
25 26 27 27 27 26 27 27 27 25 25 25 25 27 27 27 27 27 28 29 29 30 32 33 34 36 38 38 37 36 34 32 31 32 33 33 32 31 29 28 29 31 32 31 30 29 26 24 22 19 19 20 20 19 22 26 28 30 31 31 32 33 32
24 25 25 25 25 25 26 27 27 26 25 25 26 28 29 29 29 29 29 29 29 29 31 33 33 33 35 37 37 36 34 32 30 30 31 32 32 31 29 27 28 31 32 32 32 30 28 26 22 18 17 20 21 19 19 22 24 25 27 29 31 31 31
23 24 23 23 23 23 24 25 26 25 24 23 23 25 28 29 30 31 31 30 30 29 30 33 32 31 33 35 36 35 34 33 30 28 29 31 32 32 31 28 29 31 32 31 30 30 29 27 24 20 16 18 21 21 20 20 21 22 21 23 25 26 27
21 23 22 22 21 21 21 22 23 24 24 24 22 22 25 28 30 32 32 31 30 30 30 33 33 31 30 33 35 35 34 33 31 28 28 29 31 32 33 32 31 31 31 29 29 29 28 26 25 22 18 15 18 24 24 21 20 20 19 18 18 20 22
19 21 22 21 20 20 20 20 22 24 24 24 24 23 24 27 28 31 32 32 31 31 31 33 33 30 29 30 33 34 34 32 31 28 26 26 28 31 33 33 33 32 31 29 28 28 27 25 24 21 18 15 15 19 22 20 19 17 17 16 16 17 19
16 18 20 21 20 19 19 20 21 23 24 25 26 25 25 26 28 30 32 32 32 31 31 32 33 31 28 29 31 33 34 33 30 27 25 24 26 28 31 32 33 32 31 29 28 28 27 25 23 20 18 17 16 13 13 17 17 15 15 16 15 16 17
14 16 17 19 20 19 18 19 21 22 24 25 26 27 27 27 28 29 31 31 32 33 32 32 33 32 30 28 29 30 32 32 30 27 25 25 26 27 29 30 30 31 30 28 28 28 28 27 25 22 19 16 13 11 11 15 16 14 14 15 15 15 15
13 14 16 18 18 18 18 19 20 22 24 25 27 27 28 28 28 29 31 31 32 33 33 32 33 33 31 29 28 29 30 30 30 29 26 26 26 27 28 28 27 29 29 29 29 29 29 30 30 26 19 12 3 4 9 13 15 16 16 16 14 13 11
11 12 14 16 17 17 18 19 20 21 23 25 27 28 28 28 28 29 30 30 31 32 33 33 33 32 32 30 26 27 29 29 30 30 28 27 27 27 28 27 26 26 27 28 29 30 30 31 32 30 24 17 11 9 7 9 13 15 16 17 16 13 11
Wind_Direction
52 47 47 45 41 40 39 32 23 14 1 355 0 1 358 356 347 335 322 307 302 301 297 290 287 288 286 283 283 281 276 275 272 266 264 262 255 255 252 245 243 240 238 235 229 220 216 214 213 218 222 223 222 221 220 222 224 223 220 218 219 218 220
44 46 45 39 36 35 33 33 33 29 19 8 4 4 3 358 350 345 340 325 313 309 303 297 296 293 287 283 282 281 276 274 275 270 266 265 261 259 256 247 242 240 236 234 231 227 223 220 212 205 210 215 220 221 222 224 226 226 223 221 220 219 220
38 39 39 33 29 24 21 22 24 25 22 14 8 6 6 4 358 350 342 329 318 312 309 308 304 298 292 287 283 281 280 278 277 272 268 268 265 261 259 251 237 232 231 229 226 224 222 220 224 215 200 200 208 218 220 222 224 226 225 223 220 220 221
39 36 33 29 23 18 16 15 16 14 11 10 7 6 7 7 7 3 353 339 326 318 316 314 308 302 296 291 287 283 282 281 279 274 270 269 265 258 256 251 239 231 227 223 220 218 216 214 217 220 207 205 207 213 218 221 224 225 225 222 221 222 221
41 37 34 29 24 21 17 14 11 6 3 4 3 3 3 2 3 3 1 354 344 334 327 322 316 310 304 297 292 289 288 286 281 274 268 266 263 258 256 253 246 241 235 233 228 219 216 213 208 208 210 206 209 221 224 224 224 224 224 222 221 222 221
40 37 33 29 24 22 19 16 13 8 6 6 4 3 2 2 3 1 359 357 352 345 337 329 323 319 314 304 296 293 293 292 287 278 270 268 266 260 258 257 252 245 240 239 235 225 219 214 208 208 209 201 200 220 223 221 221 222 223 224 222 221 221
38 35 32 26 23 22 19 19 18 16 14 11 9 7 5 5 6 4 1 356 350 344 338 332 325 320 315 307 300 295 292 292 289 283 275 271 270 265 261 261 257 248 242 241 236 229 221 212 206 202 200 204 211 214 211 211 213 214 219 224 224 221 221
38 36 33 25 23 20 16 18 22 21 18 15 14 11 9 9 6 4 0 355 351 345 341 338 332 325 318 310 303 297 293 290 287 283 279 275 272 269 264 262 258 252 248 244 238 231 222 215 211 205 198 198 215 214 202 203 206 210 217 221 222 221 220
44 40 35 29 25 20 16 18 21 20 17 17 17 14 11 11 11 9 4 359 356 350 346 343 340 335 327 316 308 302 297 294 291 287 284 279 275 272 266 261 256 253 252 247 239 232 224 218 216 210 204 203 209 210 206 204 202 217 221 218 218 220 219
48 43 38 32 28 24 21 21 21 20 17 17 18 16 14 16 17 15 11 6 2 357 353 350 344 337 329 320 312 307 302 299 296 291 285 280 279 275 266 260 255 254 255 249 240 234 226 221 219 215 213 212 212 206 205 214 204 214 220 216 216 217 217
51 48 42 37 34 32 28 25 24 22 21 20 20 20 20 22 19 14 13 10 6 5 3 359 352 342 334 326 318 313 309 307 300 291 286 283 282 278 268 261 258 256 253 247 242 237 230 224 222 222 222 217 214 213 209 208 211 213 212 213 216 217 216
55 51 46 42 40 37 33 30 29 27 25 24 23 23 23 24 18 10 11 11 8 10 9 5 0 353 347 341 331 323 318 316 309 296 288 284 281 276 268 262 259 257 252 245 243 240 233 228 225 226 226 220 218 221 219 209 217 218 209 210 215 217 217
59 54 50 47 45 42 38 36 35 32 31 29 28 28 25 28 23 7 8 12 11 12 12 10 6 360 355 352 346 338 330 326 321 308 298 291 284 276 267 261 258 256 249 243 242 240 235 231 228 226 227 222 220 223 223 214 220 229 217 217 216 215 216
59 56 54 52 49 45 41 39 38 37 39 38 38 38 33 30 26 8 9 15 16 14 13 11 8 4 360 356 353 349 342 336 330 320 309 299 289 278 267 259 255 252 247 244 243 237 233 232 229 226 227 226 221 223 223 215 217 234 225 222 220 216 214
59 56 55 54 51 47 43 41 40 39 41 39 39 42 39 34 31 18 15 19 19 17 14 11 8 5 2 358 354 352 348 343 337 329 319 308 296 285 272 259 254 254 250 247 244 236 231 231 231 230 227 225 222 222 221 215 218 231 226 220 218 215 211
60 57 55 53 51 48 44 43 42 41 40 37 35 37 36 33 33 26 19 22 22 18 15 12 8 5 2 359 356 353 350 346 342 336 327 319 308 295 282 267 260 259 255 249 248 246 239 234 234 233 228 223 223 224 221 218 219 223 223 220 215 209 206
60 57 55 53 50 47 43 42 43 43 42 40 36 34 31 27 27 24 20 21 21 19 15 12 8 6 3 359 356 353 351 348 344 338 330 322 315 302 288 277 272 267 259 251 250 251 249 245 241 237 234 230 227 226 225 223 223 222 221 222 214 207 204
61 58 56 54 51 47 44 41 42 43 43 41 38 34 32 28 25 24 19 17 17 17 15 12 8 5 3 360 357 352 350 348 344 341 335 326 321 312 292 279 278 274 265 259 258 254 248 246 245 242 243 240 231 227 226 225 226 223 220 223 218 208 204
64 62 60 59 56 51 48 46 45 43 42 41 38 33 32 30 28 26 21 16 15 15 15 13 9 5 3 1 358 354 351 349 348 346 342 335 330 323 306 290 284 280 273 267 263 255 246 243 244 244 246 243 233 226 226 226 227 223 219 222 219 206 200
66 65 64 62 60 55 52 50 49 46 43 41 38 33 32 32 30 29 24 18 15 15 15 15 11 7 6 3 359 357 356 355 354 354 351 346 339 334 325 313 302 292 284 278 271 260 250 243 242 243 244 242 233 225 226 228 227 222 220 219 214 205 198
61 62 63 63 61 57 54 52 51 50 47 43 39 34 33 33 32 32 27 21 18 16 16 16 13 10 8 6 2 1 0 359 358 357 356 352 346 342 338 329 317 306 298 292 285 275 262 251 246 244 244 242 235 225 223 227 223 216 214 213 210 206 196
56 56 58 61 60 56 55 53 52 51 49 46 42 37 35 34 33 31 27 22 20 18 16 15 14 12 11 8 6 4 2 2 2 360 358 356 351 350 350 343 329 321 318 308 294 282 271 261 254 249 245 243 236 224 219 224 221 213 210 209 208 205 195
59 56 57 61 62 58 55 54 52 51 49 46 43 39 37 36 34 31 27 23 21 19 17 16 14 15 16 14 12 9 7 7 7 4 1 358 357 357 359 356 345 335 331 323 308 293 280 270 263 256 251 245 237 226 216 214 218 217 212 210 210 205 196
60 58 57 59 62 60 56 54 53 51 47 43 41 39 37 36 34 31 29 26 23 20 18 16 15 16 17 18 17 14 13 11 8 5 2 1 0 359 359 359 359 356 351 342 330 313 294 280 270 263 257 252 246 236 223 212 212 213 209 210 216 210 201
60 58 57 56 58 59 57 53 50 49 46 42 39 37 35 33 32 29 27 25 24 21 18 16 17 16 16 19 19 17 17 15 10 7 5 4 2 0 359 359 0 3 1 354 344 331 312 291 276 268 260 255 250 243 235 225 218 213 207 207 214 214 209
61 59 58 57 56 56 55 50 45 43 42 41 40 38 34 31 30 27 24 22 20 19 17 16 17 17 15 17 18 17 17 16 11 10 9 6 4 3 2 360 359 1 1 357 351 341 325 307 288 275 267 260 251 244 242 238 231 224 215 207 207 213 216
63 61 61 60 57 55 52 47 43 40 39 40 40 37 32 29 28 25 22 20 18 17 16 15 16 17 16 17 18 17 17 14 11 12 12 9 7 5 4 2 359 359 1 1 357 348 333 320 305 284 273 270 261 251 247 242 236 232 224 213 208 214 218
66 64 63 62 60 56 50 45 43 42 44 46 41 34 29 26 24 23 20 18 17 17 16 15 16 17 17 17 18 17 16 14 12 12 12 10 9 8 6 3 360 0 1 1 359 352 340 328 316 298 282 278 274 264 254 244 235 230 227 221 217 221 222
68 66 64 63 61 57 52 48 47 47 50 50 43 36 32 28 24 21 19 17 16 16 16 16 16 17 17 17 18 16 14 12 10 10 11 10 9 9 8 3 360 1 1 360 357 353 345 334 321 306 289 280 279 272 259 247 236 230 229 228 228 230 228
69 67 64 63 61 58 55 52 50 50 50 47 42 37 34 32 28 23 20 18 16 15 15 15 16 17 17 17 17 16 13 10 8 6 8 9 8 9 9 5 1 1 2 0 357 352 348 340 328 313 293 279 275 268 255 245 237 232 231 232 233 235 235
69 66 64 63 62 58 56 53 51 51 49 45 41 36 33 31 29 25 22 20 19 16 14 15 16 16 16 16 17 15 12 9 6 2 1 4 6 8 9 8 6 5 3 1 358 354 351 344 335 324 306 285 273 264 253 243 236 233 233 233 232 231 231
69 65 64 64 63 60 57 54 52 51 49 45 41 36 31 30 28 26 23 21 21 20 16 15 16 17 16 17 17 16 13 9 5 1 358 358 0 4 7 8 9 8 5 3 2 359 355 349 341 332 320 299 274 260 255 247 239 236 233 226 221 218 216
71 65 63 64 64 63 60 57 53 50 49 46 42 38 33 29 27 25 23 22 23 23 18 15 17 18 17 18 18 18 16 11 5 1 357 355 356 358 2 5 8 8 7 7 7 4 2 357 348 337 325 309 281 263 257 248 239 234 224 211 202 200 199
74 68 64 63 65 65 62 57 53 49 47 44 41 38 34 30 28 25 23 23 24 25 21 17 17 18 18 18 19 20 18 14 8 3 359 358 357 357 358 2 6 8 9 10 11 10 9 6 359 349 335 311 286 272 260 242 229 219 204 191 184 183 182
78 72 65 61 63 65 62 56 52 48 45 42 40 37 33 29 27 24 23 24 25 25 22 18 17 17 17 16 19 21 19 16 13 10 5 3 2 1 1 3 7 11 12 14 16 16 17 16 13 5 349 319 286 271 257 232 212 194 179 173 171 171 170
78 73 65 59 60 62 60 55 50 46 43 41 38 35 32 28 25 23 22 24 26 25 22 19 16 15 14 13 16 19 19 18 18 16 12 7 5 5 6 8 10 14 17 20 23 23 24 25 25 20 7 354 331 224 224 210 189 172 158 151 151 152 151
74 70 64 56 56 58 57 53 49 44 42 40 37 35 31 28 25 23 21 22 24 24 21 19 17 15 13 11 13 17 18 18 19 20 18 15 12 10 11 13 15 17 20 23 27 30 31 31 33 33 30 33 59 98 138 157 158 153 140 128 124 118 112